When you browse on this site, cookies collect data to enhance your experience and personalize the content and advertising you see.
Visit our Privacy Policy to learn more. By continuing to use the site, you agree to this use of cookies and data.
  • En España
  • Lista de países
  • Para 7 días
  • Temperatura del agua
  • Mapa Satelital
  • El tiempo en el mapa
  • Informadores
  • user-avatar
    Iniciar sesión

    Tiempo cada hora Cross River

    Hoy, 24 Mayo, Viernes

    Tiempo Temperatura Precipitaciones Viento Presión Humedad
    00:00 +27°C° 0 mm 1 mps 751 mmHg 94%
    01:00 +25°C° 0 mm 0 mps 751 mmHg 95%
    02:00 +25°C° 0 mm 0 mps 751 mmHg 95%
    03:00 +27°C° 0 mm 1 mps 751 mmHg 95%
    04:00 +27°C° 0 mm 1 mps 751 mmHg 96%
    05:00 +27°C° 0 mm 1 mps 751 mmHg 95%
    06:00 +27°C° 0 mm 1 mps 751 mmHg 94%
    07:00 +27°C° 0 mm 1 mps 751 mmHg 93%
    08:00 +29°C° 0 mm 1 mps 752 mmHg 83%
    09:00 +32°C° 0 mm 1 mps 752 mmHg 72%
    10:00 +35°C° 0 mm 2 mps 752 mmHg 61%
    11:00 +36°C° 0 mm 2 mps 751 mmHg 57%
    12:00 +37°C° 0 mm 2 mps 751 mmHg 53%
    13:00 +38°C° 0 mm 2 mps 751 mmHg 49%
    14:00 +37°C° 0.1 mm 2 mps 750 mmHg 51%
    15:00 +37°C° 0.1 mm 2 mps 749 mmHg 52%
    16:00 +36°C° 0.1 mm 2 mps 749 mmHg 54%
    17:00 +35°C° 0.1 mm 2 mps 749 mmHg 59%
    18:00 +34°C° 0.1 mm 2 mps 749 mmHg 64%
    19:00 +31°C° 0.1 mm 2 mps 750 mmHg 68%
    20:00 +30°C° 0.2 mm 2 mps 750 mmHg 73%
    21:00 +29°C° 0.2 mm 2 mps 751 mmHg 78%
    22:00 +29°C° 0.2 mm 2 mps 751 mmHg 82%
    23:00 +28°C° 0 mm 2 mps 751 mmHg 84%

    Mañana, 25 Mayo, Sábado

    Tiempo Temperatura Precipitaciones Viento Presión Humedad
    00:00 +28°C° 0 mm 1 mps 751 mmHg 86%
    01:00 +28°C° 0 mm 1 mps 751 mmHg 88%
    02:00 +28°C° 0 mm 1 mps 751 mmHg 89%
    03:00 +27°C° 0 mm 1 mps 751 mmHg 90%
    04:00 +27°C° 0 mm 1 mps 750 mmHg 91%
    05:00 +27°C° 0 mm 1 mps 751 mmHg 91%
    06:00 +27°C° 0 mm 1 mps 751 mmHg 91%
    07:00 +27°C° 0 mm 1 mps 751 mmHg 91%
    08:00 +29°C° 0 mm 1 mps 752 mmHg 83%
    09:00 +31°C° 0 mm 2 mps 752 mmHg 75%
    10:00 +32°C° 0 mm 2 mps 752 mmHg 67%
    11:00 +35°C° 0 mm 2 mps 752 mmHg 62%
    12:00 +36°C° 0 mm 2 mps 751 mmHg 57%
    13:00 +37°C° 0 mm 2 mps 751 mmHg 52%
    14:00 +35°C° 1.3 mm 2 mps 750 mmHg 62%
    15:00 +34°C° 1.3 mm 2 mps 750 mmHg 72%
    16:00 +31°C° 1.3 mm 2 mps 749 mmHg 82%
    17:00 +30°C° 0.6 mm 2 mps 750 mmHg 85%
    18:00 +29°C° 0.6 mm 1 mps 750 mmHg 89%
    19:00 +28°C° 0.6 mm 1 mps 751 mmHg 93%
    20:00 +28°C° 0.2 mm 1 mps 751 mmHg 93%
    21:00 +28°C° 0.2 mm 1 mps 752 mmHg 94%
    22:00 +27°C° 0.2 mm 1 mps 752 mmHg 94%
    23:00 +27°C° 0 mm 1 mps 752 mmHg 95%

    Pasado mañana, 26 Mayo, Domingo

    Tiempo Temperatura Precipitaciones Viento Presión Humedad
    00:00 +27°C° 0 mm 1 mps 752 mmHg 95%
    01:00 +27°C° 0 mm 1 mps 752 mmHg 96%
    02:00 +27°C° 0 mm 1 mps 752 mmHg 96%
    03:00 +27°C° 0 mm 1 mps 751 mmHg 96%
    04:00 +24°C° 0 mm 0 mps 751 mmHg 96%
    05:00 +24°C° 0 mm 0 mps 751 mmHg 95%
    06:00 +25°C° 0 mm 0 mps 752 mmHg 95%
    07:00 +25°C° 0 mm 0 mps 752 mmHg 94%
    08:00 +28°C° 0 mm 1 mps 752 mmHg 87%
    09:00 +30°C° 0 mm 1 mps 753 mmHg 80%
    10:00 +31°C° 0 mm 1 mps 753 mmHg 73%
    11:00 +32°C° 0 mm 1 mps 752 mmHg 68%
    12:00 +33°C° 0 mm 1 mps 752 mmHg 64%
    13:00 +34°C° 0 mm 1 mps 751 mmHg 59%
    14:00 +35°C° 0 mm 1 mps 750 mmHg 56%
    15:00 +35°C° 0 mm 1 mps 749 mmHg 53%
    16:00 +36°C° 0 mm 1 mps 749 mmHg 50%
    17:00 +34°C° 0.1 mm 1 mps 749 mmHg 54%
    18:00 +33°C° 0.1 mm 1 mps 750 mmHg 59%
    19:00 +32°C° 0.1 mm 1 mps 750 mmHg 64%
    20:00 +30°C° 1.4 mm 1 mps 751 mmHg 74%
    21:00 +28°C° 1.4 mm 1 mps 751 mmHg 84%
    22:00 +27°C° 1.4 mm 1 mps 752 mmHg 93%
    23:00 +27°C° 0.2 mm 1 mps 752 mmHg 94%

    27 Mayo, Lunes

    Tiempo Temperatura Precipitaciones Viento Presión Humedad
    00:00 +27°C° 0.2 mm 1 mps 752 mmHg 95%
    01:00 +26°C° 0.2 mm 1 mps 751 mmHg 95%
    02:00 +26°C° 0.1 mm 1 mps 751 mmHg 96%
    03:00 +26°C° 0.1 mm 1 mps 751 mmHg 97%
    04:00 +26°C° 0.1 mm 1 mps 751 mmHg 97%
    05:00 +26°C° 0 mm 1 mps 751 mmHg 96%
    06:00 +26°C° 0 mm 1 mps 751 mmHg 96%
    07:00 +26°C° 0 mm 1 mps 752 mmHg 95%
    08:00 +28°C° 0 mm 1 mps 752 mmHg 87%
    09:00 +30°C° 0 mm 1 mps 752 mmHg 79%
    10:00 +31°C° 0 mm 2 mps 752 mmHg 70%
    11:00 +34°C° 0 mm 2 mps 752 mmHg 64%
    12:00 +35°C° 0 mm 2 mps 751 mmHg 57%
    13:00 +37°C° 0 mm 3 mps 750 mmHg 51%
    14:00 +37°C° 0.6 mm 2 mps 750 mmHg 55%
    15:00 +36°C° 0.6 mm 2 mps 749 mmHg 58%
    16:00 +36°C° 0.6 mm 2 mps 748 mmHg 62%
    17:00 +34°C° 0.6 mm 2 mps 749 mmHg 68%
    18:00 +31°C° 0.6 mm 2 mps 750 mmHg 74%
    19:00 +30°C° 0.6 mm 1 mps 750 mmHg 80%
    20:00 +29°C° 0 mm 2 mps 751 mmHg 82%
    21:00 +29°C° 0 mm 2 mps 751 mmHg 84%
    22:00 +28°C° 0 mm 2 mps 752 mmHg 86%
    23:00 +28°C° 0 mm 2 mps 752 mmHg 87%

    28 Mayo, Martes

    Tiempo Temperatura Precipitaciones Viento Presión Humedad
    00:00 +27°C° 0 mm 1 mps 751 mmHg 88%
    01:00 +27°C° 0 mm 1 mps 751 mmHg 89%
    02:00 +27°C° 0 mm 1 mps 751 mmHg 90%
    03:00 +26°C° 0 mm 1 mps 751 mmHg 92%
    04:00 +26°C° 0 mm 1 mps 751 mmHg 93%
    05:00 +26°C° 0 mm 1 mps 751 mmHg 93%
    06:00 +27°C° 0 mm 1 mps 752 mmHg 92%
    07:00 +27°C° 0 mm 1 mps 753 mmHg 91%
    08:00 +28°C° 0.5 mm 1 mps 753 mmHg 86%
    09:00 +29°C° 0.5 mm 1 mps 753 mmHg 81%
    10:00 +30°C° 0.5 mm 1 mps 754 mmHg 76%
    11:00 +31°C° 0.1 mm 1 mps 753 mmHg 71%
    12:00 +32°C° 0.1 mm 1 mps 752 mmHg 66%
    13:00 +33°C° 0.1 mm 1 mps 751 mmHg 61%
    14:00 +34°C° 0.2 mm 1 mps 751 mmHg 60%
    15:00 +34°C° 0.2 mm 1 mps 750 mmHg 59%
    16:00 +35°C° 0.2 mm 2 mps 749 mmHg 57%
    17:00 +34°C° 0.2 mm 2 mps 750 mmHg 64%
    18:00 +31°C° 0.2 mm 2 mps 750 mmHg 71%
    19:00 +29°C° 0.2 mm 2 mps 751 mmHg 78%
    20:00 +28°C° 0.3 mm 2 mps 751 mmHg 82%
    21:00 +27°C° 0.3 mm 1 mps 751 mmHg 86%
    22:00 +27°C° 0.3 mm 1 mps 751 mmHg 91%
    23:00 +26°C° 0 mm 1 mps 751 mmHg 92%

    29 Mayo, Miércoles

    Tiempo Temperatura Precipitaciones Viento Presión Humedad
    00:00 +26°C° 0 mm 1 mps 751 mmHg 93%
    01:00 +24°C° 0 mm 0 mps 751 mmHg 95%
    02:00 +24°C° 0 mm 0 mps 751 mmHg 95%
    03:00 +25°C° 0 mm 1 mps 751 mmHg 96%
    04:00 +25°C° 0 mm 1 mps 751 mmHg 97%
    05:00 +25°C° 0 mm 1 mps 751 mmHg 96%
    06:00 +26°C° 0 mm 1 mps 752 mmHg 94%
    07:00 +26°C° 0 mm 1 mps 752 mmHg 93%
    08:00 +27°C° 0 mm 1 mps 753 mmHg 87%
    09:00 +29°C° 0 mm 1 mps 753 mmHg 80%
    10:00 +30°C° 0 mm 1 mps 753 mmHg 74%
    11:00 +31°C° 0 mm 1 mps 753 mmHg 67%
    12:00 +33°C° 0 mm 1 mps 752 mmHg 60%
    13:00 +35°C° 0 mm 1 mps 752 mmHg 53%
    14:00 +35°C° 0 mm 1 mps 751 mmHg 52%
    15:00 +33°C° 0 mm 0 mps 750 mmHg 51%
    16:00 +33°C° 0 mm 0 mps 750 mmHg 50%
    17:00 +31°C° 0 mm 0 mps 750 mmHg 56%
    18:00 +32°C° 0 mm 1 mps 750 mmHg 62%
    19:00 +30°C° 0 mm 1 mps 750 mmHg 68%
    20:00 +29°C° 0.3 mm 1 mps 751 mmHg 75%
    21:00 +28°C° 0.3 mm 1 mps 751 mmHg 82%
    22:00 +26°C° 0.3 mm 1 mps 752 mmHg 89%
    23:00 +26°C° 0 mm 1 mps 751 mmHg 90%
    Mostrar más